| time (UTC) | temp F | wind direction | speed MPH | gust MPH | rain 1hr in | rain 24hr in | rain mn in | humidity % | barometer mb |
| 20260508040015 | 63 | 113 | 2.0 | 4.0 | 0.00 | 0.00 | 0.00 | 75 | 1009.3 |
| 20260508035015 | 63 | 113 | 3.0 | 8.0 | 0.00 | 0.00 | 0.00 | 76 | 1009.0 |
| 20260508034015 | 63 | 68 | 3.0 | 10.0 | 0.00 | 0.00 | 0.00 | 76 | 1008.9 |
| 20260508033015 | 63 | 0 | 3.0 | 8.0 | 0.00 | 0.00 | 0.00 | 75 | 1008.8 |
| 20260508032055 | 63 | 0 | 2.0 | 4.0 | 0.00 | 0.00 | 0.00 | 73 | 1008.8 |
| 20260508031015 | 64 | 23 | 2.0 | 5.0 | 0.00 | 0.00 | 0.00 | 72 | 1008.7 |
| 20260508030015 | 65 | 315 | 2.0 | 4.0 | 0.00 | 0.00 | 0.00 | 68 | 1008.6 |
| 20260508025015 | 65 | 225 | 1.0 | 3.0 | 0.00 | 0.00 | 0.00 | 66 | 1008.6 |
| 20260508024016 | 65 | 0.0 | 2.0 | 0.00 | 0.00 | 0.00 | 66 | 1008.5 | |
| 20260508023015 | 65 | 248 | 2.0 | 3.0 | 0.00 | 0.00 | 0.00 | 66 | 1008.2 |
| 20260508022035 | 65 | 0.0 | 2.0 | 0.00 | 0.00 | 0.00 | 67 | 1008.3 | |
| 20260508021015 | 65 | 225 | 1.0 | 4.0 | 0.00 | 0.00 | 0.00 | 67 | 1008.3 |
| 20260508020015 | 65 | 248 | 2.0 | 5.0 | 0.00 | 0.00 | 0.00 | 68 | 1008.3 |
| 20260508015015 | 65 | 0.0 | 0.0 | 0.00 | 0.00 | 0.00 | 68 | 1008.3 | |
| 20260508014035 | 65 | 0.0 | 2.0 | 0.00 | 0.00 | 0.00 | 67 | 1008.4 | |
| 20260508013015 | 65 | 0.0 | 2.0 | 0.00 | 0.00 | 0.00 | 67 | 1008.3 | |
| 20260508012015 | 65 | 0.0 | 2.0 | 0.00 | 0.00 | 0.00 | 67 | 1008.2 | |
| 20260508011017 | 65 | 203 | 1.0 | 2.0 | 0.00 | 0.00 | 0.00 | 67 | 1008.1 |
| 20260508010017 | 65 | 180 | 2.0 | 5.0 | 0.00 | 0.00 | 0.00 | 67 | 1008.0 |
| 20260508005017 | 65 | 203 | 4.0 | 9.0 | 0.00 | 0.00 | 0.00 | 68 | 1007.9 |
| 20260508004036 | 65 | 203 | 5.0 | 10.0 | 0.00 | 0.00 | 0.00 | 67 | 1007.9 |
| 20260508003016 | 65 | 225 | 7.0 | 12.0 | 0.00 | 0.00 | 0.00 | 67 | 1008.2 |
| 20260508002036 | 65 | 225 | 6.0 | 11.0 | 0.00 | 0.00 | 0.00 | 67 | 1008.4 |
| 20260508001016 | 65 | 225 | 5.0 | 12.0 | 0.00 | 0.00 | 0.00 | 67 | 1008.6 |
| 20260508000036 | 65 | 225 | 6.0 | 13.0 | 0.00 | 0.00 | 0.00 | 66 | 1008.6 |
| 20260507235016 | 65 | 225 | 5.0 | 11.0 | 0.00 | 0.00 | 0.00 | 66 | 1008.6 |
| 20260507234016 | 65 | 225 | 5.0 | 13.0 | 0.00 | 0.00 | 0.00 | 66 | 1008.9 |
| 20260507233016 | 65 | 248 | 7.0 | 17.0 | 0.00 | 0.00 | 0.00 | 66 | 1009.1 |
| 20260507232006 | 65 | 248 | 5.0 | 9.0 | 0.00 | 0.00 | 0.00 | 68 | 1009.1 |
| 20260507231006 | 64 | 180 | 3.0 | 7.0 | 0.00 | 0.00 | 0.00 | 70 | 1009.3 |
| 20260507230008 | 64 | 225 | 5.0 | 15.0 | 0.00 | 0.00 | 0.00 | 70 | 1009.5 |
| 20260507225008 | 64 | 248 | 8.0 | 17.0 | 0.00 | 0.00 | 0.00 | 71 | 1009.9 |
| 20260507224011 | 64 | 248 | 6.0 | 13.0 | 0.00 | 0.00 | 0.00 | 71 | 1010.0 |
| 20260507223007 | 64 | 225 | 7.0 | 16.0 | 0.00 | 0.00 | 0.00 | 68 | 1010.3 |
| 20260507222028 | 65 | 225 | 5.0 | 10.0 | 0.00 | 0.00 | 0.00 | 66 | 1010.2 |
| 20260507221008 | 66 | 225 | 4.0 | 9.0 | 0.00 | 0.00 | 0.00 | 63 | 1010.3 |
| 20260507220007 | 66 | 225 | 4.0 | 7.0 | 0.00 | 0.00 | 0.00 | 63 | 1009.6 |
| 20260507215007 | 66 | 203 | 3.0 | 5.0 | 0.00 | 0.00 | 0.00 | 64 | 1009.4 |
| 20260507214007 | 66 | 180 | 3.0 | 6.0 | 0.00 | 0.00 | 0.00 | 64 | 1009.2 |
| 20260507213007 | 66 | 203 | 4.0 | 8.0 | 0.00 | 0.00 | 0.00 | 64 | 1009.1 |
| 20260507212007 | 66 | 203 | 3.0 | 5.0 | 0.00 | 0.00 | 0.00 | 64 | 1009.1 |
| 20260507211007 | 66 | 225 | 4.0 | 6.0 | 0.00 | 0.00 | 0.00 | 64 | 1009.1 |
| 20260507210007 | 66 | 225 | 3.0 | 5.0 | 0.00 | 0.00 | 0.00 | 64 | 1009.1 |
| 20260507205009 | 66 | 248 | 4.0 | 9.0 | 0.00 | 0.00 | 0.00 | 64 | 1009.2 |
| 20260507204029 | 66 | 225 | 3.0 | 7.0 | 0.00 | 0.00 | 0.00 | 64 | 1009.3 |
| 20260507203007 | 66 | 203 | 4.0 | 7.0 | 0.00 | 0.00 | 0.00 | 64 | 1009.6 |
| 20260507202008 | 65 | 158 | 3.0 | 6.0 | 0.00 | 0.00 | 0.00 | 65 | 1009.4 |
| 20260507201008 | 65 | 135 | 2.0 | 4.0 | 0.00 | 0.00 | 0.00 | 64 | 1009.1 |
| 20260507200008 | 65 | 135 | 3.0 | 7.0 | 0.00 | 0.00 | 0.00 | 66 | 1009.0 |
| 20260507195008 | 65 | 135 | 1.0 | 5.0 | 0.00 | 0.00 | 0.00 | 66 | 1009.0 |
| 20260507194008 | 66 | 0.0 | 0.0 | 0.00 | 0.00 | 0.00 | 66 | 1008.9 | |
| 20260507193047 | 66 | 0.0 | 0.0 | 0.00 | 0.00 | 0.00 | 65 | 1008.7 | |
| 20260507192007 | 66 | 0.0 | 0.0 | 0.00 | 0.00 | 0.00 | 64 | 1008.5 | |
| 20260507191007 | 66 | 0.0 | 0.0 | 0.00 | 0.00 | 0.00 | 64 | 1008.5 | |
| 20260507190030 | 66 | 0.0 | 0.0 | 0.00 | 0.00 | 0.00 | 64 | 1008.4 | |
| 20260507185009 | 66 | 0.0 | 0.0 | 0.00 | 0.00 | 0.00 | 63 | 1008.3 | |
| 20260507184009 | 65 | 0.0 | 0.0 | 0.00 | 0.00 | 0.00 | 64 | 1008.0 | |
| 20260507183009 | 65 | 135 | 3.0 | 8.0 | 0.00 | 0.00 | 0.00 | 66 | 1008.1 |
| 20260507182009 | 66 | 135 | 1.0 | 9.0 | 0.00 | 0.00 | 0.00 | 65 | 1008.2 |
| 20260507181009 | 67 | 0.0 | 3.0 | 0.00 | 0.00 | 0.00 | 62 | 1008.0 | |
| 20260507180009 | 67 | 0.0 | 7.0 | 0.00 | 0.00 | 0.00 | 55 | 1007.9 | |
| 20260507175009 | 68 | 0.0 | 1.0 | 0.00 | 0.00 | 0.00 | 49 | 1007.8 | |
| 20260507174009 | 68 | 0.0 | 1.0 | 0.00 | 0.00 | 0.00 | 47 | 1007.7 | |
| 20260507173009 | 68 | 0.0 | 0.0 | 0.00 | 0.00 | 0.00 | 48 | 1007.7 | |
| 20260507172009 | 68 | 0.0 | 0.0 | 0.00 | 0.00 | 0.00 | 46 | 1007.8 | |
| 20260507171009 | 69 | 0.0 | 0.0 | 0.00 | 0.00 | 0.00 | 46 | 1007.8 | |
| 20260507170049 | 69 | 0.0 | 0.0 | 0.00 | 0.00 | 0.00 | 46 | 1007.9 | |
| 20260507165009 | 69 | 0.0 | 0.0 | 0.00 | 0.00 | 0.00 | 46 | 1007.9 | |
| 20260507164009 | 70 | 0.0 | 1.0 | 0.00 | 0.00 | 0.00 | 51 | 1008.1 | |
| 20260507163009 | 70 | 0.0 | 0.0 | 0.00 | 0.00 | 0.00 | 51 | 1008.0 | |
| 20260507162009 | 70 | 0.0 | 0.0 | 0.00 | 0.00 | 0.00 | 49 | 1008.0 | |
| 20260507161009 | 71 | 0.0 | 0.0 | 0.00 | 0.00 | 0.00 | 51 | 1007.8 | |
| 20260507160009 | 70 | 0.0 | 0.0 | 0.00 | 0.00 | 0.00 | 54 | 1007.7 | |
| 20260507155009 | 71 | 0.0 | 0.0 | 0.00 | 0.00 | 0.00 | 56 | 1007.9 | |
| 20260507154010 | 71 | 0.0 | 2.0 | 0.00 | 0.00 | 0.00 | 56 | 1008.1 | |
| 20260507153009 | 71 | 0.0 | 2.0 | 0.00 | 0.00 | 0.00 | 56 | 1008.0 | |
| 20260507152011 | 71 | 0.0 | 1.0 | 0.00 | 0.00 | 0.00 | 58 | 1007.8 | |
| 20260507151032 | 72 | 0.0 | 0.0 | 0.00 | 0.00 | 0.00 | 55 | 1007.8 | |
| 20260507150031 | 72 | 0.0 | 1.0 | 0.00 | 0.00 | 0.00 | 48 | 1007.9 | |
| 20260507145011 | 73 | 0.0 | 1.0 | 0.00 | 0.00 | 0.00 | 45 | 1008.1 | |
| 20260507144051 | 74 | 0.0 | 4.0 | 0.00 | 0.00 | 0.00 | 47 | 1007.8 | |
| 20260507143011 | 73 | 270 | 1.0 | 7.0 | 0.00 | 0.00 | 0.00 | 47 | 1007.5 |
| 20260507142011 | 73 | 0.0 | 0.0 | 0.00 | 0.00 | 0.00 | 49 | 1007.7 | |
| 20260507141012 | 73 | 0.0 | 3.0 | 0.00 | 0.00 | 0.00 | 51 | 1007.7 | |
| 20260507140011 | 73 | 0.0 | 5.0 | 0.00 | 0.00 | 0.00 | 54 | 1007.7 | |
| 20260507135011 | 72 | 0.0 | 0.0 | 0.00 | 0.00 | 0.00 | 57 | 1008.1 | |
| 20260507134031 | 72 | 0.0 | 0.0 | 0.00 | 0.00 | 0.00 | 58 | 1008.0 | |
| 20260507133051 | 72 | 0.0 | 0.0 | 0.00 | 0.00 | 0.00 | 57 | 1008.1 | |
| 20260507132011 | 72 | 0.0 | 0.0 | 0.00 | 0.00 | 0.00 | 58 | 1008.5 | |
| 20260507131031 | 71 | 0.0 | 0.0 | 0.00 | 0.00 | 0.00 | 57 | 1008.2 | |
| 20260507130011 | 71 | 0.0 | 0.0 | 0.00 | 0.00 | 0.00 | 56 | 1008.3 | |
| 20260507125011 | 73 | 0.0 | 0.0 | 0.00 | 0.00 | 0.00 | 54 | 1008.5 | |
| 20260507124031 | 73 | 0.0 | 0.0 | 0.00 | 0.00 | 0.00 | 58 | 1008.7 | |
| 20260507123010 | 72 | 158 | 1.0 | 10.0 | 0.00 | 0.00 | 0.00 | 56 | 1008.7 |
| 20260507122010 | 73 | 135 | 2.0 | 9.0 | 0.00 | 0.00 | 0.00 | 52 | 1008.8 |
| 20260507121011 | 73 | 158 | 1.0 | 12.0 | 0.00 | 0.00 | 0.00 | 50 | 1008.7 |
| 20260507120031 | 73 | 0 | 3.0 | 12.0 | 0.00 | 0.00 | 0.00 | 47 | 1008.4 |
| 20260507115011 | 73 | 0 | 3.0 | 12.0 | 0.00 | 0.00 | 0.00 | 46 | 1008.4 |
| 20260507114012 | 72 | 180 | 4.0 | 16.0 | 0.00 | 0.00 | 0.00 | 49 | 1008.6 |
| 20260507113013 | 72 | 158 | 6.0 | 17.0 | 0.00 | 0.00 | 0.00 | 46 | 1008.6 |
| 20260507112012 | 74 | 0 | 5.0 | 25.0 | 0.00 | 0.00 | 0.00 | 39 | 1008.5 |
| 20260507111013 | 73 | 0 | 5.0 | 16.0 | 0.00 | 0.00 | 0.00 | 39 | 1008.9 |
| 20260507110012 | 73 | 135 | 9.0 | 25.0 | 0.00 | 0.00 | 0.00 | 39 | 1008.9 |
| 20260507105012 | 73 | 0 | 11.0 | 25.0 | 0.00 | 0.00 | 0.00 | 37 | 1009.2 |
| 20260507104013 | 73 | 0 | 11.0 | 25.0 | 0.00 | 0.00 | 0.00 | 36 | 1009.1 |
| 20260507103032 | 73 | 0 | 12.0 | 23.0 | 0.00 | 0.00 | 0.00 | 35 | 1009.1 |
| 20260507102032 | 73 | 0 | 12.0 | 27.0 | 0.00 | 0.00 | 0.00 | 33 | 1008.9 |
| 20260507101013 | 73 | 0 | 12.0 | 27.0 | 0.00 | 0.00 | 0.00 | 33 | 1008.9 |
| 20260507100012 | 72 | 0 | 15.0 | 32.0 | 0.00 | 0.00 | 0.00 | 32 | 1008.7 |
| 20260507095012 | 73 | 0 | 12.0 | 26.0 | 0.00 | 0.00 | 0.00 | 32 | 1008.9 |
| 20260507094013 | 72 | 0 | 11.0 | 26.0 | 0.00 | 0.00 | 0.00 | 31 | 1009.0 |
| 20260507093012 | 72 | 0 | 9.0 | 31.0 | 0.00 | 0.00 | 0.00 | 35 | 1009.2 |
| 20260507092012 | 71 | 158 | 3.0 | 18.0 | 0.00 | 0.00 | 0.00 | 53 | 1009.8 |
| 20260507091012 | 71 | 45 | 3.0 | 10.0 | 0.00 | 0.00 | 0.00 | 57 | 1009.6 |
| 20260507090012 | 71 | 0.0 | 5.0 | 0.00 | 0.00 | 0.00 | 54 | 1009.7 | |
| 20260507085032 | 69 | 315 | 3.0 | 9.0 | 0.00 | 0.00 | 0.00 | 65 | 1009.9 |
| 20260507084012 | 69 | 0.0 | 4.0 | 0.00 | 0.00 | 0.00 | 71 | 1009.8 | |
| 20260507083012 | 68 | 270 | 1.0 | 6.0 | 0.00 | 0.00 | 0.00 | 72 | 1009.8 |
| 20260507082032 | 68 | 270 | 2.0 | 10.0 | 0.00 | 0.00 | 0.00 | 69 | 1009.9 |
| 20260507081012 | 69 | 0.0 | 0.0 | 0.00 | 0.00 | 0.00 | 67 | 1009.9 | |
| 20260507080014 | 70 | 180 | 2.0 | 8.0 | 0.00 | 0.00 | 0.00 | 65 | 1009.9 |
| 20260507075014 | 71 | 180 | 6.0 | 20.0 | 0.00 | 0.00 | 0.00 | 47 | 1009.8 |
| 20260507074014 | 71 | 0 | 7.0 | 20.0 | 0.00 | 0.00 | 0.00 | 34 | 1009.6 |
| 20260507073034 | 70 | 0 | 9.0 | 23.0 | 0.00 | 0.00 | 0.00 | 31 | 1009.2 |
| 20260507072014 | 70 | 0 | 12.0 | 27.0 | 0.00 | 0.00 | 0.00 | 31 | 1009.3 |
| 20260507071014 | 69 | 0 | 14.0 | 37.0 | 0.00 | 0.00 | 0.00 | 30 | 1009.2 |
| 20260507070014 | 70 | 0 | 11.0 | 27.0 | 0.00 | 0.00 | 0.00 | 30 | 1009.3 |
| 20260507065014 | 70 | 0 | 12.0 | 26.0 | 0.00 | 0.00 | 0.00 | 29 | 1009.3 |
| 20260507064014 | 69 | 0 | 11.0 | 25.0 | 0.00 | 0.00 | 0.00 | 29 | 1009.6 |
| 20260507063034 | 69 | 0 | 10.0 | 19.0 | 0.00 | 0.00 | 0.00 | 31 | 1009.7 |
| 20260507062014 | 69 | 0 | 9.0 | 18.0 | 0.00 | 0.00 | 0.00 | 31 | 1009.9 |
| 20260507061014 | 68 | 0 | 7.0 | 17.0 | 0.00 | 0.00 | 0.00 | 31 | 1010.0 |
| 20260507060014 | 69 | 0 | 9.0 | 19.0 | 0.00 | 0.00 | 0.00 | 34 | 1009.9 |
| 20260507055014 | 68 | 0 | 10.0 | 23.0 | 0.00 | 0.00 | 0.00 | 30 | 1009.8 |
| 20260507054034 | 68 | 0 | 10.0 | 22.0 | 0.00 | 0.00 | 0.00 | 30 | 1009.7 |
| 20260507053014 | 68 | 0 | 14.0 | 28.0 | 0.00 | 0.00 | 0.00 | 30 | 1009.7 |
| 20260507052014 | 67 | 0 | 16.0 | 28.0 | 0.00 | 0.00 | 0.00 | 30 | 1009.4 |
| 20260507051013 | 66 | 0 | 12.0 | 23.0 | 0.00 | 0.00 | 0.00 | 31 | 1009.6 |
| 20260507050014 | 66 | 0 | 11.0 | 21.0 | 0.00 | 0.00 | 0.00 | 33 | 1009.7 |
| 20260507045014 | 66 | 0 | 12.0 | 21.0 | 0.00 | 0.00 | 0.00 | 32 | 1009.6 |
| 20260507044013 | 66 | 0 | 14.0 | 21.0 | 0.00 | 0.00 | 0.00 | 33 | 1009.6 |
| 20260507043014 | 67 | 0 | 15.0 | 26.0 | 0.00 | 0.00 | 0.00 | 32 | 1009.6 |
| 20260507042015 | 67 | 0 | 15.0 | 26.0 | 0.00 | 0.00 | 0.00 | 32 | 1009.8 |
| 20260507041015 | 67 | 0 | 12.0 | 26.0 | 0.00 | 0.00 | 0.00 | 31 | 1009.7 |